Погода в Каце

Погода в Каце : погода сейчас, прогноз погоды и архив. Всё, что Вы хотите узнать о погоде в Каце!

Поиск расширенной информации на нашем сайте:

Полезная информация: Плитка из резины резиновая плитка.

Другие новости

Новости СМИ2

Главная страница сайта

Новости сайта

02.10.2013

Напоминаем, что на нашем новом сайте вы можете получить высокодетализированные прогнозы погоды по пунктам России, СНГ и мира (включающие важные для авиации метеовеличины, такие как направление и скорость ветра, видимость, явления погоды, количество и форма облачности, нижняя и верхняя граница облачности), а также ознакомиться с разнообразными материалами по авиационной метеорологии и подборкой полезных ссылок на эту тему.

Сайт Метеоцентр.Азия посвящён разработке технологий оптимизации авиаметеорологического обслуживания, включая проектирование и перспективное создание нескольких автоматизированных авиаметеорологических систем:
- система выпуска высокодетальных прогностических карт явлений погоды для нижнего воздушного пространства по России и ближнему зарубежью;
- система верификации прогнозов TAF (выпускаемых синоптиками официальных АМСГ РФ и ближнего зарубежья) и AUTOTAF (выпускаемых сайтом Метеоцентр.Азия) - выявление ошибок, онлайн-сопоставление с фактической погодой METAR, автоматическое внесение коррективов в прогнозы при резком отклонении фактической погоды от прогноза, подсчёт оправдываемости прогнозов по элементам и в целом;
- система обработки, анализа и отображения авиаметеорологической информации для применения провайдерами метеорологической информации.

Рекомендуем: Видеоинтерфейс, интерфейс hdmi мультимедийный: схема распиновки.

Погода в Каце - сегодня

Время (UTC), дата Ветер
(°,м/с) 
Видим.   Явления Облачность Т
(°С)
Тd
(°С)
f(%) Тe
(°С)
Pmin
(гПа)
dP
(гПа)
Po
(мм)
O2
(г/м3)
Тmin Tmax R s Состояние
почвы
12 22.03.17 270 (З) 20000 м    3/0 верхняя 
[Ci fib]
+2.9 -14.8 26 +2  1032.2  730  292    +7.9       
15 22.03.17 тихо ()   20000 м    ясно 
-5.6 -13.1 55 -6  1035.9  1.7  731  302           
18 22.03.17 тихо ()   20000 м    ясно 
-10.3 -13.5 77 -10  1037.2  0.2  731  307           
21 22.03.17 тихо ()   20000 м    ясно 
-12.7 -14.4 87 -13  1038.1  0.3  731  310           
00 23.03.17 тихо ()   20000 м    ясно 
-14.5 -15.9 89 -15  1039.4  0.8  732  313  -15.4      69  равномерный
сухой снег
100% 
03 23.03.17 230 (ЮЗ) 20000 м    3/0 верхняя 
[Ci fib]
+0.1 -13.7 35 -1  1036.5  0.5  732  296  -15.6         
06 23.03.17 270 (З) 20000 м    5/0 верхняя 
[Ci sp]
+3.3 -13.8 27 +1  1035.2  -0.5  732  293           
09 23.03.17 250 (З) 5{10}  20000 м    4/0 верхняя 
[Ci fib]
+3.4 -14.7 25 +1  1034.5  -0.7  732  292           
12 23.03.17 250 (З) 20000 м    3/0 верхняя 
[Ci fib]
+0.4 -15.6 29 1035.4  0.2  732  296    +3.6       
15 23.03.17 230 (ЮЗ) 20000 м    ясно 
-3.5 -15.5 39 -5  1036.9  0.6  732  300           
18 23.03.17 220 (ЮЗ) 20000 м    ясно 
-4.1 -16.6 37 -4  1037.1  732  301           
21 23.03.17 тихо ()   20000 м    ясно 
-6.4 -16.6 44 -6  1037.6  732  303           
00 24.03.17 тихо ()   20000 м    3/0 верхняя 
[Ci sp]
-6.7 -16.5 46 -7  1037.9  0.2  732  304  -8.5      68  равномерный
сухой снег
100% 
03 24.03.17 240 (ЮЗ) 20000 м    5/0 верхняя 
[Ci fib]
+1 -14.6 30 -1  1036.2  0.1  732  295           
06 24.03.17 260 (З) 20000 м    3/0 верхняя 
[Ci fib]
+5.3 -15.6 20 +4  1034.1  -1.1  732  290           
09 24.03.17 270 (З) 20000 м    ясно 
+6.6 -17.8 16 +6  1032  -1.7  730  289           
12 24.03.17 250 (З) 20000 м    ясно 
+3.7 -15.6 23 +5  1031.3  -1.2  729  291    +7.3       
15 24.03.17 тихо ()   20000 м    ясно 
-6 -12.5 60 -6  1032.6  -0.8  729  301           
18 24.03.17 тихо ()   20000 м    ясно 
-10.7 -13.5 80 -11  1032  -1.7  728  306           
21 24.03.17 тихо ()   20000 м    ясно 
-13.3 -15.4 84 -13  1030.6  -1.9  726  309           
00 25.03.17 тихо ()   20000 м    ясно 
-15 -16.5 88 -15  1029.1  -1.8  725  310  -15.1      66  равномерный
сухой снег
100% 
03 25.03.17 тихо ()   20000 м    ясно 
+5.2 -10.9 30 +5  1022.9  -1.4  724  287           
06 25.03.17 140 (ЮВ) 20000 м    ясно 
+8 -13.2 21 +7  1019.5  -2.7  722  284           
09 25.03.17 180 (Ю) 20000 м    3/0 верхняя 
[Ci fib]
+9.9 -12.8 19 +9  1016.4  -2.5  720  281           
12 25.03.17 240 (ЮЗ) 20000 м    6/0 верхняя 
[Ci sp]
+6.4 -10.7 28 +6  1016.2  -0.8  719  284    +10.4       
Время (UTC), дата Ветер
(°,м/с) 
Видим.   Явления Облачность Т
(°С)
Тd
(°С)
f(%) Тe
(°С)
Pmin
(гПа)
dP
(гПа)
Po
(мм)
O2
(г/м3)
Тmin Tmax R s Состояние
почвы

Для получения пояснительной информации подведите курсор к названию столбца.

ПОГОДА в Каце - архив

Всё, что Вы хотите узнать о погоде в Каце - удобно и подробно!

Выберите нужную дату (начиная с 1 января 2015* года) и нажмите кнопку "Найти".
Будут отображены архивные сводки погоды по пункту Каца, начиная с указанной даты.


Отображать данные в формате CSV (для использования в таблицах Excel)


Внимание! Наш архив погоды предназначен исключительно для личного некоммерческого использования в познавательных целях. Если Вам необходимы официальные справки о состоянии погоды (для производственных, юридических, коммерческих и т.п. целей), обращайтесь в органы Росгидромета.

*Примечание: данная дата относится к архиву по метеостанциям СССР (Россия, СНГ, Балтия).
Архив по метеостанциям Зарубежной Европы и Азии (кроме Китая) хранится 10 дней, по другим регионам земного шара (Китай, Африка, Америка, Австралия, Океания) - 1 день.

Каца - район местоположения метеостанции


Название, широта, долгота, высота метеостанции:
Каца 56.1°ш. 92.2°д. 479 м над ур. моря [Российская Федерация]

Дополнительная информация

В oтличие oт бoльшинства пoгoдных сайтoв мы публикуем пoдрoбную метеoинфoрмацию в детальнoм прoфессиoнальнoм фoрмате.

Характеристики температуры и влажнoсти вoздуха измеряются на высoте 2 м в тени вдали oт зданий и деревьев.
Скoрoсть ветра измеряется на высoте 10 м (на урoвне рoста челoвека скoрoсть ветра ниже в 1.5-2 раза). Если метеoстанция нахoдится в гoрoде или в лесу, тo скoрoсть ветра занижена на 2-4 м/с пo сравнению с oткрытым местoм. Скoрoсть ветра над акватoриями крупных рек и oзёр, а также на вершинах хoлмoв на 2-5 м/с выше, чем в oбычных услoвиях.
Атмoсфернoе давление в разных тoчках местнoсти мoжет значительнo oтличаться oт давления на метеoстанции, в зависимoсти oт услoвий рельефа (при пoдъёме на 10 м давление пoнижается примернo на 1 мм рт.ст.).